TimeMST,TemperatureF,Dew PointF,Humidity,Sea Level PressureIn,VisibilityMPH,Wind Direction,Wind SpeedMPH,Gust SpeedMPH,PrecipitationIn,Events,Conditions,WindDirDegrees,DateUTC
12:51 AM,21.9,19.9,92,30.44,-9999.0,Calm,Calm,-,N/A,,Unknown,0,2013-11-12 07:51:00
1:51 AM,21.9,19.0,89,30.43,-9999.0,Calm,Calm,-,N/A,,Unknown,0,2013-11-12 08:51:00
2:51 AM,21.9,19.0,89,30.42,-9999.0,Calm,Calm,-,N/A,,Unknown,0,2013-11-12 09:51:00
3:51 AM,19.9,18.0,92,30.44,-9999.0,South,3.5,-,N/A,,Unknown,180,2013-11-12 10:51:00
4:51 AM,19.9,18.0,92,30.48,-9999.0,Calm,Calm,-,N/A,,Unknown,0,2013-11-12 11:51:00
5:51 AM,19.9,19.0,96,30.50,-9999.0,Calm,Calm,-,N/A,,Unknown,0,2013-11-12 12:51:00
6:51 AM,19.0,17.1,92,30.53,-9999.0,Calm,Calm,-,N/A,,Unknown,0,2013-11-12 13:51:00
7:51 AM,19.9,17.1,89,30.52,-9999.0,Calm,Calm,-,N/A,,Unknown,0,2013-11-12 14:51:00
8:51 AM,25.0,21.9,88,30.51,-9999.0,Calm,Calm,-,N/A,,Unknown,0,2013-11-12 15:51:00
9:51 AM,28.9,24.1,82,30.50,-9999.0,Calm,Calm,-,N/A,,Unknown,0,2013-11-12 16:51:00
10:51 AM,33.1,26.1,75,30.48,-9999.0,North,3.5,-,N/A,,Unknown,10,2013-11-12 17:51:00
11:51 AM,37.9,26.1,62,30.43,-9999.0,North,5.8,-,N/A,,Unknown,350,2013-11-12 18:51:00
12:51 PM,42.1,25.0,51,30.41,-9999.0,Calm,Calm,-,N/A,,Unknown,0,2013-11-12 19:51:00
1:51 PM,48.0,26.1,42,30.36,-9999.0,Calm,Calm,-,N/A,,Unknown,0,2013-11-12 20:51:00
2:51 PM,51.1,27.0,39,30.34,-9999.0,Variable,3.5,-,N/A,,Unknown,0,2013-11-12 21:51:00
3:51 PM,48.0,30.0,50,30.36,-9999.0,Calm,Calm,-,N/A,,Unknown,0,2013-11-12 22:51:00
4:51 PM,46.9,30.9,54,30.36,-9999.0,Calm,Calm,-,N/A,,Unknown,0,2013-11-12 23:51:00
5:51 PM,39.9,27.0,60,30.41,-9999.0,Calm,Calm,-,N/A,,Unknown,0,2013-11-13 00:51:00
6:51 PM,39.9,25.0,55,30.42,-9999.0,Calm,Calm,-,N/A,,Unknown,0,2013-11-13 01:51:00
7:51 PM,39.0,26.1,60,30.41,-9999.0,Calm,Calm,-,N/A,,Unknown,0,2013-11-13 02:51:00
8:51 PM,36.0,27.0,70,30.40,-9999.0,Calm,Calm,-,N/A,,Unknown,0,2013-11-13 03:51:00
9:51 PM,34.0,26.1,73,30.40,-9999.0,Variable,3.5,-,N/A,,Unknown,0,2013-11-13 04:51:00
10:51 PM,33.1,27.0,78,30.38,-9999.0,Calm,Calm,-,N/A,,Unknown,0,2013-11-13 05:51:00
11:51 PM,32.0,26.1,79,30.36,-9999.0,Calm,Calm,-,N/A,,Unknown,0,2013-11-13 06:51:00